This is the latest recevied weather packets stored in our database for station/object K7CTM. If no packets are shown the sender has not sent any weather packets the latest 10 day(s).
| Time | Temp. | Humidity | Pressure | Rain* | Wind** | Luminosity | Snow |
|---|---|---|---|---|---|---|---|
| 1778035138 | 6.11° C | 40% | 1028.2 hPa | 0 mm | - | 1 W/m² | - |
| 1778034836 | 6.11° C | 40% | 1027.8 hPa | 0 mm | - | 1 W/m² | - |
| 1778034532 | 6.11° C | 40% | 1027.8 hPa | 0 mm | - | 1 W/m² | - |
| 1778034230 | 6.11° C | 39% | 1027.7 hPa | 0 mm | - | 2 W/m² | - |
| 1778033927 | 6.11° C | 39% | 1027.7 hPa | 0 mm | - | 3 W/m² | - |
| 1778033624 | 6.11° C | 38% | 1027.7 hPa | 0 mm | - | 6 W/m² | - |
| 1778033321 | 6.11° C | 38% | 1027.7 hPa | 0 mm | - | 7 W/m² | - |
| 1778033019 | 6.67° C | 38% | 1027.5 hPa | 0 mm | - | 9 W/m² | - |
| 1778032716 | 6.67° C | 37% | 1027.4 hPa | 0 mm | - | 12 W/m² | - |
| 1778032414 | 6.67° C | 37% | 1027.3 hPa | 0 mm | - | 19 W/m² | - |
| 1778032110 | 6.67° C | 38% | 1027.3 hPa | 0 mm | - | 26 W/m² | - |
| 1778031807 | 6.67° C | 37% | 1027.3 hPa | 0 mm | - | 31 W/m² | - |
| 1778031504 | 6.67° C | 37% | 1027.3 hPa | 0 mm | - | 34 W/m² | - |
| 1778031200 | 7.22° C | 37% | 1027.2 hPa | 0 mm | - | 35 W/m² | - |
| 1778030898 | 7.22° C | 36% | 1027.1 hPa | 0 mm | - | 37 W/m² | - |
| 1778030595 | 7.22° C | 36% | 1027.2 hPa | 0 mm | - | 43 W/m² | - |
| 1778030292 | 7.22° C | 36% | 1027.2 hPa | 0 mm | - | 52 W/m² | - |
| 1778029989 | 7.22° C | 36% | 1027 hPa | 0 mm | - | 65 W/m² | - |
| 1778029686 | 7.22° C | 37% | 1027 hPa | 0 mm | - | 55 W/m² | - |
| 1778029384 | 7.22° C | 37% | 1026.9 hPa | 0 mm | - | 66 W/m² | - |
| 1778029080 | 7.22° C | 36% | 1026.9 hPa | 0 mm | - | 84 W/m² | - |
| 1778028777 | 7.22° C | 36% | 1026.8 hPa | 0 mm | - | 80 W/m² | - |
| 1778028473 | 7.22° C | 36% | 1026.9 hPa | 0 mm | - | 82 W/m² | - |
| 1778028171 | 7.22° C | 36% | 1026.9 hPa | 0 mm | - | 94 W/m² | - |
| 1778027867 | 7.78° C | 35% | 1026.6 hPa | 0 mm | - | 97 W/m² | - |
* Rain latest hour (hover to see other rain measurements)
** Current wind speed in m/s (hover to see current wind gust speed)